Time,TemperatureF,DewpointF,PressureIn,WindDirection,WindDirectionDegrees,WindSpeedMPH,WindSpeedGustMPH,Humidity,HourlyPrecipIn,Conditions,Clouds,dailyrainin,SoftwareType,DateUTC
2013-07-08 00:02:00,78.0,-99.9,30.16,SW,224,9.0,14.0,-999,-99.99,,,-99.99,,2013-07-08 04:02:00,
2013-07-08 00:12:00,78.0,-99.9,30.16,SW,225,9.0,13.0,-999,-99.99,,,-99.99,,2013-07-08 04:12:00,
2013-07-08 00:22:00,78.0,-99.9,30.16,SW,225,9.0,13.0,-999,-99.99,,,-99.99,,2013-07-08 04:22:00,
2013-07-08 00:33:00,78.0,-99.9,30.17,SW,222,10.0,13.0,-999,-99.99,,,-99.99,,2013-07-08 04:33:00,
2013-07-08 00:42:00,78.0,-99.9,30.17,SW,225,9.0,13.0,-999,-99.99,,,-99.99,,2013-07-08 04:42:00,
2013-07-08 00:53:00,78.0,-99.9,30.17,SW,228,9.0,13.0,-999,-99.99,,,-99.99,,2013-07-08 04:53:00,
2013-07-08 01:01:00,78.0,-99.9,30.17,SW,228,9.0,12.0,-999,-99.99,,,-99.99,,2013-07-08 05:01:00,
2013-07-08 01:34:00,78.0,-99.9,30.16,SW,229,9.0,13.0,-999,-99.99,,,-99.99,,2013-07-08 05:34:00,
2013-07-08 01:43:00,78.0,-99.9,30.16,SW,226,9.0,14.0,-999,-99.99,,,-99.99,,2013-07-08 05:43:00,
2013-07-08 01:53:00,78.0,-99.9,30.16,SW,230,9.0,14.0,-999,-99.99,,,-99.99,,2013-07-08 05:53:00,
2013-07-08 02:01:00,77.0,-99.9,30.16,SW,235,8.0,11.0,-999,-99.99,,,-99.99,,2013-07-08 06:01:00,
2013-07-08 02:12:00,77.0,-99.9,30.16,SW,234,8.0,11.0,-999,-99.99,,,-99.99,,2013-07-08 06:12:00,
2013-07-08 02:22:00,77.0,-99.9,30.16,SW,234,8.0,11.0,-999,-99.99,,,-99.99,,2013-07-08 06:22:00,
2013-07-08 02:34:00,77.0,-99.9,30.16,SW,231,10.0,12.0,-999,-99.99,,,-99.99,,2013-07-08 06:34:00,
2013-07-08 02:43:00,77.0,-99.9,30.16,SW,231,10.0,13.0,-999,-99.99,,,-99.99,,2013-07-08 06:43:00,
2013-07-08 02:53:00,77.0,-99.9,30.16,SW,229,10.0,14.0,-999,-99.99,,,-99.99,,2013-07-08 06:53:00,
2013-07-08 03:02:00,77.0,-99.9,30.16,SW,232,10.0,13.0,-999,-99.99,,,-99.99,,2013-07-08 07:02:00,
2013-07-08 03:12:00,77.0,-99.9,30.16,SW,231,10.0,15.0,-999,-99.99,,,-99.99,,2013-07-08 07:12:00,
2013-07-08 03:34:00,77.0,-99.9,30.16,SW,229,10.0,14.0,-999,-99.99,,,-99.99,,2013-07-08 07:34:00,
2013-07-08 03:44:00,77.0,-99.9,30.16,SW,229,10.0,13.0,-999,-99.99,,,-99.99,,2013-07-08 07:44:00,
2013-07-08 03:53:00,77.0,-99.9,30.15,SW,228,9.0,11.0,-999,-99.99,,,-99.99,,2013-07-08 07:53:00,
2013-07-08 04:02:00,77.0,-99.9,30.15,SW,227,8.0,12.0,-999,-99.99,,,-99.99,,2013-07-08 08:02:00,
2013-07-08 04:34:00,77.0,-99.9,30.16,SW,231,10.0,14.0,-999,-99.99,,,-99.99,,2013-07-08 08:34:00,
2013-07-08 04:42:00,77.0,-99.9,30.16,SW,230,8.0,13.0,-999,-99.99,,,-99.99,,2013-07-08 08:42:00,
2013-07-08 04:53:00,77.0,-99.9,30.16,SW,233,10.0,15.0,-999,-99.99,,,-99.99,,2013-07-08 08:53:00,
2013-07-08 05:02:00,77.0,-99.9,30.16,SW,230,10.0,14.0,-999,-99.99,,,-99.99,,2013-07-08 09:02:00,
2013-07-08 05:11:00,77.0,-99.9,30.16,SW,232,10.0,14.0,-999,-99.99,,,-99.99,,2013-07-08 09:11:00,
2013-07-08 05:34:00,77.0,-99.9,30.16,SW,231,9.0,14.0,-999,-99.99,,,-99.99,,2013-07-08 09:34:00,
2013-07-08 05:53:00,77.0,-99.9,30.16,SW,229,10.0,13.0,-999,-99.99,,,-99.99,,2013-07-08 09:53:00,
2013-07-08 06:02:00,77.0,-99.9,30.16,SW,231,10.0,13.0,-999,-99.99,,,-99.99,,2013-07-08 10:02:00,
2013-07-08 06:11:00,77.0,-99.9,30.16,SW,233,9.0,12.0,-999,-99.99,,,-99.99,,2013-07-08 10:11:00,
2013-07-08 06:34:00,77.0,-99.9,30.17,SW,234,9.0,13.0,-999,-99.99,,,-99.99,,2013-07-08 10:34:00,
2013-07-08 06:53:00,78.0,-99.9,30.17,SW,232,9.0,15.0,-999,-99.99,,,-99.99,,2013-07-08 10:53:00,
2013-07-08 07:02:00,77.0,-99.9,30.17,SW,231,9.0,14.0,-999,-99.99,,,-99.99,,2013-07-08 11:02:00,
2013-07-08 07:34:00,78.0,-99.9,30.18,WSW,237,9.0,12.0,-999,-99.99,,,-99.99,,2013-07-08 11:34:00,
2013-07-08 07:43:00,78.0,-99.9,30.18,SW,233,10.0,12.0,-999,-99.99,,,-99.99,,2013-07-08 11:43:00,
2013-07-08 07:53:00,78.0,-99.9,30.18,SW,234,8.0,12.0,-999,-99.99,,,-99.99,,2013-07-08 11:53:00,
2013-07-08 08:02:00,79.0,-99.9,30.19,SW,230,8.0,13.0,-999,-99.99,,,-99.99,,2013-07-08 12:02:00,
2013-07-08 08:43:00,79.0,-99.9,30.19,SW,226,10.0,13.0,-999,-99.99,,,-99.99,,2013-07-08 12:43:00,
2013-07-08 08:53:00,79.0,-99.9,30.19,SW,227,8.0,13.0,-999,-99.99,,,-99.99,,2013-07-08 12:53:00,
2013-07-08 09:02:00,79.0,-99.9,30.19,SW,230,9.0,12.0,-999,-99.99,,,-99.99,,2013-07-08 13:02:00,
2013-07-08 09:43:00,80.0,-99.9,30.19,SW,216,9.0,14.0,-999,-99.99,,,-99.99,,2013-07-08 13:43:00,
2013-07-08 10:34:00,80.0,-99.9,30.19,SW,222,9.0,13.0,-999,-99.99,,,-99.99,,2013-07-08 14:34:00,
2013-07-08 10:43:00,80.0,-99.9,30.19,SW,216,9.0,13.0,-999,-99.99,,,-99.99,,2013-07-08 14:43:00,
2013-07-08 11:02:00,81.0,-99.9,30.19,SSW,212,9.0,14.0,-999,-99.99,,,-99.99,,2013-07-08 15:02:00,
2013-07-08 11:12:00,81.0,-99.9,30.20,SSW,206,9.0,13.0,-999,-99.99,,,-99.99,,2013-07-08 15:12:00,
2013-07-08 12:02:00,81.0,-99.9,30.20,SSW,204,11.0,15.0,-999,-99.99,,,-99.99,,2013-07-08 16:02:00,
2013-07-08 12:43:00,81.0,-99.9,30.20,SSW,210,13.0,16.0,-999,-99.99,,,-99.99,,2013-07-08 16:43:00,
2013-07-08 13:08:00,81.0,-99.9,30.20,SSW,205,11.0,15.0,-999,-99.99,,,-99.99,,2013-07-08 17:08:00,
2013-07-08 13:48:00,82.0,-99.9,30.18,SSW,207,10.0,14.0,-999,-99.99,,,-99.99,,2013-07-08 17:48:00,
2013-07-08 14:42:00,82.0,-99.9,30.15,SSW,204,11.0,17.0,-999,-99.99,,,-99.99,,2013-07-08 18:42:00,
2013-07-08 14:47:00,82.0,-99.9,30.16,SSW,206,13.0,18.0,-999,-99.99,,,-99.99,,2013-07-08 18:47:00,
2013-07-08 15:36:00,82.0,-99.9,30.15,SSW,204,11.0,17.0,-999,-99.99,,,-99.99,,2013-07-08 19:36:00,
2013-07-08 16:09:00,82.0,-99.9,30.15,SSW,209,12.0,17.0,-999,-99.99,,,-99.99,,2013-07-08 20:09:00,
2013-07-08 16:19:00,82.0,-99.9,30.15,SSW,213,14.0,18.0,-999,-99.99,,,-99.99,,2013-07-08 20:19:00,
2013-07-08 17:10:00,82.0,-99.9,30.15,SSW,209,13.0,19.0,-999,-99.99,,,-99.99,,2013-07-08 21:10:00,
2013-07-08 17:12:00,81.0,-99.9,30.14,SSW,211,13.0,18.0,-999,-99.99,,,-99.99,,2013-07-08 21:12:00,
2013-07-08 17:37:00,82.0,-99.9,30.15,SW,215,11.0,16.0,-999,-99.99,,,-99.99,,2013-07-08 21:37:00,
2013-07-08 17:42:00,82.0,-99.9,30.14,SSW,209,11.0,16.0,-999,-99.99,,,-99.99,,2013-07-08 21:42:00,
2013-07-08 18:12:00,82.0,-99.9,30.14,SSW,210,11.0,15.0,-999,-99.99,,,-99.99,,2013-07-08 22:12:00,
2013-07-08 19:06:00,80.0,-99.9,30.13,SSW,209,11.0,15.0,-999,-99.99,,,-99.99,,2013-07-08 23:06:00,
2013-07-08 19:42:00,79.0,-99.9,30.13,SW,217,9.0,13.0,-999,-99.99,,,-99.99,,2013-07-08 23:42:00,
2013-07-08 23:03:00,78.0,-99.9,30.18,SW,228,8.0,10.0,-999,-99.99,,,-99.99,,2013-07-09 03:03:00,
2013-07-08 23:13:00,78.0,-99.9,30.18,SW,231,6.0,9.0,-999,-99.99,,,-99.99,,2013-07-09 03:13:00,
2013-07-08 23:19:00,77.0,-99.9,30.18,SW,231,6.0,8.0,-999,-99.99,,,-99.99,,2013-07-09 03:19:00,
2013-07-08 23:27:00,77.0,-99.9,30.18,SW,223,8.0,10.0,-999,-99.99,,,-99.99,,2013-07-09 03:27:00,
2013-07-08 23:50:00,78.0,-99.9,30.18,SW,224,7.0,11.0,-999,-99.99,,,-99.99,,2013-07-09 03:50:00,